Year,Month,Day,Hour,Minute,Value (Times are PST for temperature in C)
2015,06,26,00,00,19.30
2015,06,26,00,01,19.30
2015,06,26,00,02,19.30
2015,06,26,00,03,19.30
2015,06,26,00,04,19.30
2015,06,26,00,05,19.30
2015,06,26,00,06,19.20
2015,06,26,00,07,19.20
2015,06,26,00,08,19.20
2015,06,26,00,09,19.20
2015,06,26,00,10,19.10
2015,06,26,00,11,19.10
2015,06,26,00,12,19.10
2015,06,26,00,13,19.10
2015,06,26,00,14,19.10
2015,06,26,00,15,19.00
2015,06,26,00,16,19.00
2015,06,26,00,17,19.00
2015,06,26,00,18,18.90
2015,06,26,00,19,18.90
2015,06,26,00,20,18.90
2015,06,26,00,21,18.80
2015,06,26,00,22,18.80
2015,06,26,00,23,18.80
2015,06,26,00,24,18.70
2015,06,26,00,25,18.70
2015,06,26,00,26,18.70
2015,06,26,00,27,18.60
2015,06,26,00,28,18.60
2015,06,26,00,29,18.60
2015,06,26,00,30,18.60
2015,06,26,00,31,18.60
2015,06,26,00,32,18.50
2015,06,26,00,33,18.50
2015,06,26,00,34,18.50
2015,06,26,00,35,18.40
2015,06,26,00,36,18.40
2015,06,26,00,37,18.40
2015,06,26,00,38,18.40
2015,06,26,00,39,18.40
2015,06,26,00,40,18.40
2015,06,26,00,41,18.40
2015,06,26,00,42,18.40
2015,06,26,00,43,18.40
2015,06,26,00,44,18.40
2015,06,26,00,45,18.40
2015,06,26,00,46,18.40
2015,06,26,00,47,18.40
2015,06,26,00,48,18.40
2015,06,26,00,49,18.50
2015,06,26,00,50,18.50
2015,06,26,00,51,18.50
2015,06,26,00,52,18.50
2015,06,26,00,53,18.40
2015,06,26,00,54,18.40
2015,06,26,00,55,18.40
2015,06,26,00,56,18.40
2015,06,26,00,57,18.40
2015,06,26,00,58,18.40
2015,06,26,00,59,18.40
2015,06,26,01,00,18.40
2015,06,26,01,01,18.30
2015,06,26,01,02,18.30
2015,06,26,01,03,18.30
2015,06,26,01,04,18.30
2015,06,26,01,05,18.30
2015,06,26,01,06,18.30
2015,06,26,01,07,18.30
2015,06,26,01,08,18.30
2015,06,26,01,09,18.20
2015,06,26,01,10,18.20
2015,06,26,01,11,18.20
2015,06,26,01,12,18.10
2015,06,26,01,13,18.10
2015,06,26,01,14,18.10
2015,06,26,01,15,18.10
2015,06,26,01,16,18.00
2015,06,26,01,17,18.00
2015,06,26,01,18,18.00
2015,06,26,01,19,17.90
2015,06,26,01,20,17.90
2015,06,26,01,21,17.90
2015,06,26,01,22,17.90
2015,06,26,01,23,17.80
2015,06,26,01,24,17.80
2015,06,26,01,25,17.80
2015,06,26,01,26,17.80
2015,06,26,01,27,17.80
2015,06,26,01,28,17.80
2015,06,26,01,29,17.80
2015,06,26,01,30,17.70
2015,06,26,01,31,17.70
2015,06,26,01,32,17.70
2015,06,26,01,33,17.70
2015,06,26,01,34,17.70
2015,06,26,01,35,17.70
2015,06,26,01,36,17.70
2015,06,26,01,37,17.70
2015,06,26,01,38,17.70
2015,06,26,01,39,17.70
2015,06,26,01,40,17.70
2015,06,26,01,41,17.60
2015,06,26,01,42,17.60
2015,06,26,01,43,17.60
2015,06,26,01,44,17.60
2015,06,26,01,45,17.60
2015,06,26,01,46,17.60
2015,06,26,01,47,17.60
2015,06,26,01,48,17.60
2015,06,26,01,49,17.50
2015,06,26,01,50,17.50
2015,06,26,01,51,17.50
2015,06,26,01,52,17.50
2015,06,26,01,53,17.40
2015,06,26,01,54,17.40
2015,06,26,01,55,17.40
2015,06,26,01,56,17.40
2015,06,26,01,57,17.30
2015,06,26,01,58,17.30
2015,06,26,01,59,17.30
2015,06,26,02,00,17.30
2015,06,26,02,01,17.20
2015,06,26,02,02,17.20
2015,06,26,02,03,17.20
2015,06,26,02,04,17.20
2015,06,26,02,05,17.20
2015,06,26,02,06,17.20
2015,06,26,02,07,17.10
2015,06,26,02,08,17.10
2015,06,26,02,09,17.10
2015,06,26,02,10,17.10
2015,06,26,02,11,17.10
2015,06,26,02,12,17.10
2015,06,26,02,13,17.00
2015,06,26,02,14,17.00
2015,06,26,02,15,17.00
2015,06,26,02,16,16.90
2015,06,26,02,17,16.90
2015,06,26,02,18,16.90
2015,06,26,02,19,16.90
2015,06,26,02,20,16.80
2015,06,26,02,21,16.80
2015,06,26,02,22,16.80
2015,06,26,02,23,16.80
2015,06,26,02,24,16.80
2015,06,26,02,25,16.80
2015,06,26,02,26,16.80
2015,06,26,02,27,16.80
2015,06,26,02,28,16.80
2015,06,26,02,29,16.80
2015,06,26,02,30,16.80
2015,06,26,02,31,16.70
2015,06,26,02,32,16.70
2015,06,26,02,33,16.70
2015,06,26,02,34,16.70
2015,06,26,02,35,16.70
2015,06,26,02,36,16.60
2015,06,26,02,37,16.60
2015,06,26,02,38,16.60
2015,06,26,02,39,16.60
2015,06,26,02,40,16.50
2015,06,26,02,41,16.50
2015,06,26,02,42,16.40
2015,06,26,02,43,16.40
2015,06,26,02,44,16.40
2015,06,26,02,45,16.40
2015,06,26,02,46,16.30
2015,06,26,02,47,16.30
2015,06,26,02,48,16.30
2015,06,26,02,49,16.30
2015,06,26,02,50,16.30
2015,06,26,02,51,16.20
2015,06,26,02,52,16.20
2015,06,26,02,53,16.20
2015,06,26,02,54,16.10
2015,06,26,02,55,16.10
2015,06,26,02,56,16.10
2015,06,26,02,57,16.10
2015,06,26,02,58,16.10
2015,06,26,02,59,16.10
2015,06,26,03,00,16.10
2015,06,26,03,01,16.10
2015,06,26,03,02,16.10
2015,06,26,03,03,16.10
2015,06,26,03,04,16.00
2015,06,26,03,05,16.00
2015,06,26,03,06,16.00
2015,06,26,03,07,16.00
2015,06,26,03,08,16.00
2015,06,26,03,09,16.00
2015,06,26,03,10,16.00
2015,06,26,03,11,16.00
2015,06,26,03,12,16.00
2015,06,26,03,13,16.10
2015,06,26,03,14,16.10
2015,06,26,03,15,16.10
2015,06,26,03,16,16.10
2015,06,26,03,17,16.10
2015,06,26,03,18,16.10
2015,06,26,03,19,16.10
2015,06,26,03,20,16.10
2015,06,26,03,21,16.10
2015,06,26,03,22,16.10
2015,06,26,03,23,16.10
2015,06,26,03,24,16.10
2015,06,26,03,25,16.10
2015,06,26,03,26,16.10
2015,06,26,03,27,16.10
2015,06,26,03,28,16.10
2015,06,26,03,29,16.10
2015,06,26,03,30,16.10
2015,06,26,03,31,16.10
2015,06,26,03,32,16.10
2015,06,26,03,33,16.00
2015,06,26,03,34,16.00
2015,06,26,03,35,16.00
2015,06,26,03,36,16.00
2015,06,26,03,37,16.00
2015,06,26,03,38,16.00
2015,06,26,03,39,15.90
2015,06,26,03,40,15.90
2015,06,26,03,41,15.90
2015,06,26,03,42,15.90
2015,06,26,03,43,15.90
2015,06,26,03,44,15.90
2015,06,26,03,45,15.80
2015,06,26,03,46,15.80
2015,06,26,03,47,15.80
2015,06,26,03,48,15.80
2015,06,26,03,49,15.80
2015,06,26,03,50,15.80
2015,06,26,03,51,15.80
2015,06,26,03,52,15.80
2015,06,26,03,53,15.70
2015,06,26,03,54,15.70
2015,06,26,03,55,15.70
2015,06,26,03,56,15.70
2015,06,26,03,57,15.70
2015,06,26,03,58,15.70
2015,06,26,03,59,15.70
2015,06,26,04,00,15.60
2015,06,26,04,01,15.60
2015,06,26,04,02,15.60
2015,06,26,04,03,15.60
2015,06,26,04,04,15.60
2015,06,26,04,05,15.60
2015,06,26,04,06,15.50
2015,06,26,04,07,15.50
2015,06,26,04,08,15.50
2015,06,26,04,09,15.50
2015,06,26,04,10,15.40
2015,06,26,04,11,15.40
2015,06,26,04,12,15.40
2015,06,26,04,13,15.40
2015,06,26,04,14,15.40
2015,06,26,04,15,15.40
2015,06,26,04,16,15.40
2015,06,26,04,17,15.40
2015,06,26,04,18,15.40
2015,06,26,04,19,15.40
2015,06,26,04,20,15.40
2015,06,26,04,21,15.30
2015,06,26,04,22,15.30
2015,06,26,04,23,15.30
2015,06,26,04,24,15.30
2015,06,26,04,25,15.30
2015,06,26,04,26,15.30
2015,06,26,04,27,15.30
2015,06,26,04,28,15.30
2015,06,26,04,29,15.30
2015,06,26,04,30,15.30
2015,06,26,04,31,15.30
2015,06,26,04,32,15.30
2015,06,26,04,33,15.20
2015,06,26,04,34,15.20
2015,06,26,04,35,15.20
2015,06,26,04,36,15.20
2015,06,26,04,37,15.20
2015,06,26,04,38,15.10
2015,06,26,04,39,15.10
2015,06,26,04,40,15.10
2015,06,26,04,41,15.10
2015,06,26,04,42,15.10
2015,06,26,04,43,15.10
2015,06,26,04,44,15.10
2015,06,26,04,45,15.10
2015,06,26,04,46,15.10
2015,06,26,04,47,15.10
2015,06,26,04,48,15.00
2015,06,26,04,49,15.00
2015,06,26,04,50,15.00
2015,06,26,04,51,14.90
2015,06,26,04,52,14.90
2015,06,26,04,53,14.90
2015,06,26,04,54,14.90
2015,06,26,04,55,14.80
2015,06,26,04,56,14.80
2015,06,26,04,57,14.80
2015,06,26,04,58,14.80
2015,06,26,04,59,14.70
2015,06,26,05,00,14.70
2015,06,26,05,01,14.70
2015,06,26,05,02,14.70
2015,06,26,05,03,14.70
2015,06,26,05,04,14.70
2015,06,26,05,05,14.70
2015,06,26,05,06,14.60
2015,06,26,05,07,14.60
2015,06,26,05,08,14.60
2015,06,26,05,09,14.60
2015,06,26,05,10,14.60
2015,06,26,05,11,14.60
2015,06,26,05,12,14.60
2015,06,26,05,13,14.60
2015,06,26,05,14,14.60
2015,06,26,05,15,14.60
2015,06,26,05,16,14.60
2015,06,26,05,17,14.60
2015,06,26,05,18,14.60
2015,06,26,05,19,14.60
2015,06,26,05,20,14.60
2015,06,26,05,21,14.60
2015,06,26,05,22,14.60
2015,06,26,05,23,14.60
2015,06,26,05,24,14.60
2015,06,26,05,25,14.60
2015,06,26,05,26,14.60
2015,06,26,05,27,14.60
2015,06,26,05,28,14.60
2015,06,26,05,29,14.60
2015,06,26,05,30,14.60
2015,06,26,05,31,14.60
2015,06,26,05,32,14.60
2015,06,26,05,33,14.60
2015,06,26,05,34,14.60
2015,06,26,05,35,14.60
2015,06,26,05,36,14.70
2015,06,26,05,37,14.70
2015,06,26,05,38,14.70
2015,06,26,05,39,14.70
2015,06,26,05,40,14.70
2015,06,26,05,41,14.70
2015,06,26,05,42,14.70
2015,06,26,05,43,14.70
2015,06,26,05,44,14.70
2015,06,26,05,45,14.70
2015,06,26,05,46,14.70
2015,06,26,05,47,14.70
2015,06,26,05,48,14.70
2015,06,26,05,49,14.60
2015,06,26,05,50,14.60
2015,06,26,05,51,14.60
2015,06,26,05,52,14.60
2015,06,26,05,53,14.60
2015,06,26,05,54,14.60
2015,06,26,05,55,14.60
2015,06,26,05,56,14.60
2015,06,26,05,57,14.60
2015,06,26,05,58,14.60
2015,06,26,05,59,14.60
2015,06,26,06,00,14.60
2015,06,26,06,01,14.60
2015,06,26,06,02,14.70
2015,06,26,06,03,14.70
2015,06,26,06,04,14.70
2015,06,26,06,05,14.70
2015,06,26,06,06,14.80
2015,06,26,06,07,14.80
2015,06,26,06,08,14.80
2015,06,26,06,09,14.90
2015,06,26,06,10,14.90
2015,06,26,06,11,15.00
2015,06,26,06,12,15.00
2015,06,26,06,13,15.10
2015,06,26,06,14,15.10
2015,06,26,06,15,15.20
2015,06,26,06,16,15.20
2015,06,26,06,17,15.20
2015,06,26,06,18,15.30
2015,06,26,06,19,15.30
2015,06,26,06,20,15.30
2015,06,26,06,21,15.40
2015,06,26,06,22,15.50
2015,06,26,06,23,15.50
2015,06,26,06,24,15.60
2015,06,26,06,25,15.60
2015,06,26,06,26,15.70
2015,06,26,06,27,15.70
2015,06,26,06,28,15.80
2015,06,26,06,29,15.80
2015,06,26,06,30,15.80
2015,06,26,06,31,15.90
2015,06,26,06,32,15.90
2015,06,26,06,33,15.90
2015,06,26,06,34,15.90
2015,06,26,06,35,16.00
2015,06,26,06,36,16.00
2015,06,26,06,37,16.10
2015,06,26,06,38,16.10
2015,06,26,06,39,16.10
2015,06,26,06,40,16.20
2015,06,26,06,41,16.20
2015,06,26,06,42,16.20
2015,06,26,06,43,16.20
2015,06,26,06,44,16.30
2015,06,26,06,45,16.30
2015,06,26,06,46,16.40
2015,06,26,06,47,16.40
2015,06,26,06,48,16.50
2015,06,26,06,49,16.60
2015,06,26,06,50,16.60
2015,06,26,06,51,16.70
2015,06,26,06,52,16.70
2015,06,26,06,53,16.70
2015,06,26,06,54,16.80
2015,06,26,06,55,16.80
2015,06,26,06,56,16.80
2015,06,26,06,57,16.90
2015,06,26,06,58,16.90
2015,06,26,06,59,17.00
2015,06,26,07,00,17.00
2015,06,26,07,01,17.10
2015,06,26,07,02,17.10
2015,06,26,07,03,17.20
2015,06,26,07,04,17.20
2015,06,26,07,05,17.30
2015,06,26,07,06,17.30
2015,06,26,07,07,17.40
2015,06,26,07,08,17.40
2015,06,26,07,09,17.50
2015,06,26,07,10,17.60
2015,06,26,07,11,17.60
2015,06,26,07,12,17.70
2015,06,26,07,13,17.70
2015,06,26,07,14,17.80
2015,06,26,07,15,17.80
2015,06,26,07,16,17.90
2015,06,26,07,17,18.00
2015,06,26,07,18,18.10
2015,06,26,07,19,18.10
2015,06,26,07,20,18.20
2015,06,26,07,21,18.20
2015,06,26,07,22,18.30
2015,06,26,07,23,18.30
2015,06,26,07,24,18.30
2015,06,26,07,25,18.40
2015,06,26,07,26,18.40
2015,06,26,07,27,18.50
2015,06,26,07,28,18.50
2015,06,26,07,29,18.60
2015,06,26,07,30,18.60
2015,06,26,07,31,18.60
2015,06,26,07,32,18.70
2015,06,26,07,33,18.70
2015,06,26,07,34,18.80
2015,06,26,07,35,18.80
2015,06,26,07,36,18.80
2015,06,26,07,37,18.90
2015,06,26,07,38,18.90
2015,06,26,07,39,19.00
2015,06,26,07,40,19.00
2015,06,26,07,41,19.10
2015,06,26,07,42,19.10
2015,06,26,07,43,19.20
2015,06,26,07,44,19.20
2015,06,26,07,45,19.20
2015,06,26,07,46,19.30
2015,06,26,07,47,19.40
2015,06,26,07,48,19.50
2015,06,26,07,49,19.60
2015,06,26,07,50,19.60
2015,06,26,07,51,19.70
2015,06,26,07,52,19.80
2015,06,26,07,53,19.80
2015,06,26,07,54,19.80
2015,06,26,07,55,19.90
2015,06,26,07,56,19.90
2015,06,26,07,57,20.00
2015,06,26,07,58,20.00
2015,06,26,07,59,20.10
2015,06,26,08,00,20.20
2015,06,26,08,01,20.20
2015,06,26,08,02,20.30
2015,06,26,08,03,20.30
2015,06,26,08,04,20.40
2015,06,26,08,05,20.40
2015,06,26,08,06,20.40
2015,06,26,08,07,20.50
2015,06,26,08,08,20.50
2015,06,26,08,09,20.60
2015,06,26,08,10,20.60
2015,06,26,08,11,20.70
2015,06,26,08,12,20.70
2015,06,26,08,13,20.80
2015,06,26,08,14,20.80
2015,06,26,08,15,21.00
2015,06,26,08,16,21.10
2015,06,26,08,17,21.20
2015,06,26,08,18,21.40
2015,06,26,08,19,21.50
2015,06,26,08,20,21.50
2015,06,26,08,21,21.60
2015,06,26,08,22,21.70
2015,06,26,08,23,21.70
2015,06,26,08,24,21.80
2015,06,26,08,25,21.80
2015,06,26,08,26,21.90
2015,06,26,08,27,22.00
2015,06,26,08,28,22.10
2015,06,26,08,29,22.20
2015,06,26,08,30,22.30
2015,06,26,08,31,22.30
2015,06,26,08,32,22.30
2015,06,26,08,33,22.30
2015,06,26,08,34,22.30
2015,06,26,08,35,22.30
2015,06,26,08,36,22.30
2015,06,26,08,37,22.40
2015,06,26,08,38,22.40
2015,06,26,08,39,22.40
2015,06,26,08,40,22.50
2015,06,26,08,41,22.60
2015,06,26,08,42,22.70
2015,06,26,08,43,22.80
2015,06,26,08,44,22.90
2015,06,26,08,45,22.90
2015,06,26,08,46,23.00
2015,06,26,08,47,23.10
2015,06,26,08,48,23.10
2015,06,26,08,49,23.20
2015,06,26,08,50,23.20
2015,06,26,08,51,23.30
2015,06,26,08,52,23.30
2015,06,26,08,53,23.30
2015,06,26,08,54,23.40
2015,06,26,08,55,23.40
2015,06,26,08,56,23.40
2015,06,26,08,57,23.40
2015,06,26,08,58,23.40
2015,06,26,08,59,23.40
2015,06,26,09,00,23.40
2015,06,26,09,01,23.40
2015,06,26,09,02,23.50
2015,06,26,09,03,23.50
2015,06,26,09,04,23.60
2015,06,26,09,05,23.60
2015,06,26,09,06,23.60
2015,06,26,09,07,23.70
2015,06,26,09,08,23.70
2015,06,26,09,09,23.80
2015,06,26,09,10,23.80
2015,06,26,09,11,23.90
2015,06,26,09,12,23.90
2015,06,26,09,13,23.90
2015,06,26,09,14,23.90
2015,06,26,09,15,23.90
2015,06,26,09,16,23.90
2015,06,26,09,17,23.80
2015,06,26,09,18,23.80
2015,06,26,09,19,23.70
2015,06,26,09,20,23.70
2015,06,26,09,21,23.80
2015,06,26,09,22,23.80
2015,06,26,09,23,23.80
2015,06,26,09,24,23.80
2015,06,26,09,25,23.80
2015,06,26,09,26,23.80
2015,06,26,09,27,23.70
2015,06,26,09,28,23.50
2015,06,26,09,29,23.40
2015,06,26,09,30,23.30
2015,06,26,09,31,23.10
2015,06,26,09,32,22.90
2015,06,26,09,33,22.70
2015,06,26,09,34,22.60
2015,06,26,09,35,22.40
2015,06,26,09,36,22.40
2015,06,26,09,37,22.30
2015,06,26,09,38,22.30
2015,06,26,09,39,22.20
2015,06,26,09,40,22.30
2015,06,26,09,41,22.30
2015,06,26,09,42,22.30
2015,06,26,09,43,22.40
2015,06,26,09,44,22.40
2015,06,26,09,45,22.40
2015,06,26,09,46,22.40
2015,06,26,09,47,22.50
2015,06,26,09,48,22.50
2015,06,26,09,49,22.60
2015,06,26,09,50,22.70
2015,06,26,09,51,22.70
2015,06,26,09,52,22.70
2015,06,26,09,53,22.70
2015,06,26,09,54,22.60
2015,06,26,09,55,22.60
2015,06,26,09,56,22.40
2015,06,26,09,57,22.30
2015,06,26,09,58,22.20
2015,06,26,09,59,22.10
2015,06,26,10,00,22.10
2015,06,26,10,01,22.10
2015,06,26,10,02,22.10
2015,06,26,10,03,22.10
2015,06,26,10,04,22.20
2015,06,26,10,05,22.20
2015,06,26,10,06,22.30
2015,06,26,10,07,22.40
2015,06,26,10,08,22.50
2015,06,26,10,09,22.60
2015,06,26,10,10,22.70
2015,06,26,10,11,22.70
2015,06,26,10,12,22.70
2015,06,26,10,13,22.70
2015,06,26,10,14,22.80
2015,06,26,10,15,22.80
2015,06,26,10,16,22.80
2015,06,26,10,17,22.80
2015,06,26,10,18,22.70
2015,06,26,10,19,22.60
2015,06,26,10,20,22.60
2015,06,26,10,21,22.50
2015,06,26,10,22,22.40
2015,06,26,10,23,22.40
2015,06,26,10,24,22.40
2015,06,26,10,25,22.30
2015,06,26,10,26,22.30
2015,06,26,10,27,22.40
2015,06,26,10,28,22.50
2015,06,26,10,29,22.60
2015,06,26,10,30,22.60
2015,06,26,10,31,22.70
2015,06,26,10,32,22.70
2015,06,26,10,33,22.80
2015,06,26,10,34,22.90
2015,06,26,10,35,23.00
2015,06,26,10,36,23.10
2015,06,26,10,37,23.20
2015,06,26,10,38,23.20
2015,06,26,10,39,23.20
2015,06,26,10,40,23.20
2015,06,26,10,41,23.20
2015,06,26,10,42,23.20
2015,06,26,10,43,23.20
2015,06,26,10,44,23.30
2015,06,26,10,45,23.40
2015,06,26,10,46,23.40
2015,06,26,10,47,23.40
2015,06,26,10,48,23.40
2015,06,26,10,49,23.40
2015,06,26,10,50,23.50
2015,06,26,10,51,23.50
2015,06,26,10,52,23.40
2015,06,26,10,53,23.40
2015,06,26,10,54,23.40
2015,06,26,10,55,23.40
2015,06,26,10,56,23.40
2015,06,26,10,57,23.50
2015,06,26,10,58,23.60
2015,06,26,10,59,23.70
2015,06,26,11,00,23.70
2015,06,26,11,01,23.70
2015,06,26,11,02,23.80
2015,06,26,11,03,23.90
2015,06,26,11,04,23.90
2015,06,26,11,05,23.90
2015,06,26,11,06,23.90
2015,06,26,11,07,24.00
2015,06,26,11,08,23.90
2015,06,26,11,09,23.80
2015,06,26,11,10,23.80
2015,06,26,11,11,23.80
2015,06,26,11,12,23.80
2015,06,26,11,13,23.90
2015,06,26,11,14,23.90
2015,06,26,11,15,23.90
2015,06,26,11,16,24.00
2015,06,26,11,17,24.20
2015,06,26,11,18,24.30
2015,06,26,11,19,24.40
2015,06,26,11,20,24.50
2015,06,26,11,21,24.50
2015,06,26,11,22,24.50
2015,06,26,11,23,24.60
2015,06,26,11,24,24.60
2015,06,26,11,25,24.60
2015,06,26,11,26,24.60
2015,06,26,11,27,24.60
2015,06,26,11,28,24.60
2015,06,26,11,29,24.60
2015,06,26,11,30,24.60
2015,06,26,11,31,24.60
2015,06,26,11,32,24.70
2015,06,26,11,33,24.60
2015,06,26,11,34,24.60
2015,06,26,11,35,24.50
2015,06,26,11,36,24.50
2015,06,26,11,37,24.40
2015,06,26,11,38,24.30
2015,06,26,11,39,24.30
2015,06,26,11,40,24.30
2015,06,26,11,41,24.20
2015,06,26,11,42,24.20
2015,06,26,11,43,24.20
2015,06,26,11,44,24.20
2015,06,26,11,45,24.20
2015,06,26,11,46,24.10
2015,06,26,11,47,24.20
2015,06,26,11,48,24.20
2015,06,26,11,49,24.30
2015,06,26,11,50,24.40
2015,06,26,11,51,24.50
2015,06,26,11,52,24.50
2015,06,26,11,53,24.50
2015,06,26,11,54,24.40
2015,06,26,11,55,24.50
2015,06,26,11,56,24.60
2015,06,26,11,57,24.70
2015,06,26,11,58,24.60
2015,06,26,11,59,24.60
2015,06,26,12,00,24.60
2015,06,26,12,01,24.60
2015,06,26,12,02,24.70
2015,06,26,12,03,24.90
2015,06,26,12,04,25.00
2015,06,26,12,05,25.10
2015,06,26,12,06,25.10
2015,06,26,12,07,25.10
2015,06,26,12,08,25.20
2015,06,26,12,09,25.20
2015,06,26,12,10,25.10
2015,06,26,12,11,25.00
2015,06,26,12,12,25.00
2015,06,26,12,13,25.10
2015,06,26,12,14,25.20
2015,06,26,12,15,25.20
2015,06,26,12,16,25.30
2015,06,26,12,17,25.30
2015,06,26,12,18,25.30
2015,06,26,12,19,25.30
2015,06,26,12,20,25.20
2015,06,26,12,21,25.00
2015,06,26,12,22,24.90
2015,06,26,12,23,24.90
2015,06,26,12,24,24.90
2015,06,26,12,25,24.90
2015,06,26,12,26,25.00
2015,06,26,12,27,25.00
2015,06,26,12,28,24.90
2015,06,26,12,29,24.80
2015,06,26,12,30,24.80
2015,06,26,12,31,24.80
2015,06,26,12,32,24.70
2015,06,26,12,33,24.70
2015,06,26,12,34,24.50
2015,06,26,12,35,24.40
2015,06,26,12,36,24.40
2015,06,26,12,37,24.40
2015,06,26,12,38,24.40
2015,06,26,12,39,24.40
2015,06,26,12,40,24.30
2015,06,26,12,41,24.30
2015,06,26,12,42,24.30
2015,06,26,12,43,24.40
2015,06,26,12,44,24.60
2015,06,26,12,45,24.80
2015,06,26,12,46,25.00
2015,06,26,12,47,25.00
2015,06,26,12,48,25.10
2015,06,26,12,49,25.00
2015,06,26,12,50,24.90
2015,06,26,12,51,24.80
2015,06,26,12,52,24.70
2015,06,26,12,53,24.60
2015,06,26,12,54,24.50
2015,06,26,12,55,24.60
2015,06,26,12,56,24.60
2015,06,26,12,57,24.70
2015,06,26,12,58,24.70
2015,06,26,12,59,24.60
2015,06,26,13,00,24.50
2015,06,26,13,01,24.50
2015,06,26,13,02,24.60
2015,06,26,13,03,24.70
2015,06,26,13,04,24.70
2015,06,26,13,05,24.70
2015,06,26,13,06,24.70
2015,06,26,13,07,24.60
2015,06,26,13,08,24.50
2015,06,26,13,09,24.50
2015,06,26,13,10,24.60
2015,06,26,13,11,24.60
2015,06,26,13,12,24.60
2015,06,26,13,13,24.50
2015,06,26,13,14,24.40
2015,06,26,13,15,24.40
2015,06,26,13,16,24.40
2015,06,26,13,17,24.50
2015,06,26,13,18,24.50
2015,06,26,13,19,24.60
2015,06,26,13,20,24.60
2015,06,26,13,21,24.60
2015,06,26,13,22,24.60
2015,06,26,13,23,24.50
2015,06,26,13,24,24.60
2015,06,26,13,25,24.60
2015,06,26,13,26,24.70
2015,06,26,13,27,24.70
2015,06,26,13,28,24.80
2015,06,26,13,29,24.90
2015,06,26,13,30,25.00
2015,06,26,13,31,24.90
2015,06,26,13,32,24.90
2015,06,26,13,33,24.80
2015,06,26,13,34,24.80
2015,06,26,13,35,24.90
2015,06,26,13,36,24.90
2015,06,26,13,37,24.90
2015,06,26,13,38,24.90
2015,06,26,13,39,24.90
2015,06,26,13,40,24.80
2015,06,26,13,41,24.80
2015,06,26,13,42,24.90
2015,06,26,13,43,25.10
2015,06,26,13,44,25.30
2015,06,26,13,45,25.40
2015,06,26,13,46,25.40
2015,06,26,13,47,25.30
2015,06,26,13,48,25.30
2015,06,26,13,49,25.30
2015,06,26,13,50,25.40
2015,06,26,13,51,25.40
2015,06,26,13,52,25.50
2015,06,26,13,53,25.60
2015,06,26,13,54,25.60
2015,06,26,13,55,25.70
2015,06,26,13,56,25.70
2015,06,26,13,57,25.80
2015,06,26,13,58,25.80
2015,06,26,13,59,25.80
2015,06,26,14,00,25.80
2015,06,26,14,01,25.90
2015,06,26,14,02,25.90
2015,06,26,14,03,25.90
2015,06,26,14,04,26.00
2015,06,26,14,05,26.00
2015,06,26,14,06,26.10
2015,06,26,14,07,26.10
2015,06,26,14,08,26.10
2015,06,26,14,09,26.10
2015,06,26,14,10,26.10
2015,06,26,14,11,26.00
2015,06,26,14,12,26.00
2015,06,26,14,13,26.00
2015,06,26,14,14,26.00
2015,06,26,14,15,26.00
2015,06,26,14,16,26.10
2015,06,26,14,17,26.20
2015,06,26,14,18,26.20
2015,06,26,14,19,26.30
2015,06,26,14,20,26.30
2015,06,26,14,21,26.40
2015,06,26,14,22,26.50
2015,06,26,14,23,26.60
2015,06,26,14,24,26.70
2015,06,26,14,25,26.80
2015,06,26,14,26,26.80
2015,06,26,14,27,26.90
2015,06,26,14,28,26.90
2015,06,26,14,29,26.90
2015,06,26,14,30,26.80
2015,06,26,14,31,26.60
2015,06,26,14,32,26.50
2015,06,26,14,33,26.50
2015,06,26,14,34,26.40
2015,06,26,14,35,26.50
2015,06,26,14,36,26.60
2015,06,26,14,37,26.60
2015,06,26,14,38,26.60
2015,06,26,14,39,26.60
2015,06,26,14,40,26.70
2015,06,26,14,41,26.70
2015,06,26,14,42,26.70
2015,06,26,14,43,26.70
2015,06,26,14,44,26.70
2015,06,26,14,45,26.70
2015,06,26,14,46,26.60
2015,06,26,14,47,26.60
2015,06,26,14,48,26.60
2015,06,26,14,49,26.70
2015,06,26,14,50,26.70
2015,06,26,14,51,26.80
2015,06,26,14,52,26.90
2015,06,26,14,53,27.00
2015,06,26,14,54,27.10
2015,06,26,14,55,27.10
2015,06,26,14,56,27.10
2015,06,26,14,57,27.20
2015,06,26,14,58,27.20
2015,06,26,14,59,27.30
2015,06,26,15,00,27.40
2015,06,26,15,01,27.40
2015,06,26,15,02,27.40
2015,06,26,15,03,27.40
2015,06,26,15,04,27.40
2015,06,26,15,05,27.40
2015,06,26,15,06,27.50
2015,06,26,15,07,27.60
2015,06,26,15,08,27.60
2015,06,26,15,09,27.70
2015,06,26,15,10,27.60
2015,06,26,15,11,27.50
2015,06,26,15,12,27.40
2015,06,26,15,13,27.40
2015,06,26,15,14,27.50
2015,06,26,15,15,27.60
2015,06,26,15,16,27.70
2015,06,26,15,17,27.80
2015,06,26,15,18,27.80
2015,06,26,15,19,27.80
2015,06,26,15,20,27.80
2015,06,26,15,21,27.80
2015,06,26,15,22,27.90
2015,06,26,15,23,27.90
2015,06,26,15,24,27.90
2015,06,26,15,25,27.90
2015,06,26,15,26,27.80
2015,06,26,15,27,27.80
2015,06,26,15,28,27.70
2015,06,26,15,29,27.70
2015,06,26,15,30,27.70
2015,06,26,15,31,27.70
2015,06,26,15,32,27.80
2015,06,26,15,33,27.80
2015,06,26,15,34,27.70
2015,06,26,15,35,27.70
2015,06,26,15,36,27.60
2015,06,26,15,37,27.40
2015,06,26,15,38,27.30
2015,06,26,15,39,27.30
2015,06,26,15,40,27.30
2015,06,26,15,41,27.40
2015,06,26,15,42,27.40
2015,06,26,15,43,27.50
2015,06,26,15,44,27.50
2015,06,26,15,45,27.50
2015,06,26,15,46,27.60
2015,06,26,15,47,27.60
2015,06,26,15,48,27.50
2015,06,26,15,49,27.60
2015,06,26,15,50,27.50
2015,06,26,15,51,27.40
2015,06,26,15,52,27.30
2015,06,26,15,53,27.20
2015,06,26,15,54,27.10
2015,06,26,15,55,27.20
2015,06,26,15,56,27.20
2015,06,26,15,57,27.20
2015,06,26,15,58,27.30
2015,06,26,15,59,27.20
2015,06,26,16,00,27.10
2015,06,26,16,01,27.00
2015,06,26,16,02,26.90
2015,06,26,16,03,26.80
2015,06,26,16,04,26.70
2015,06,26,16,05,26.80
2015,06,26,16,06,26.90
2015,06,26,16,07,26.90
2015,06,26,16,08,26.90
2015,06,26,16,09,26.80
2015,06,26,16,10,26.90
2015,06,26,16,11,26.90
2015,06,26,16,12,26.90
2015,06,26,16,13,27.00
2015,06,26,16,14,27.10
2015,06,26,16,15,27.10
2015,06,26,16,16,27.10
2015,06,26,16,17,27.10
2015,06,26,16,18,27.10
2015,06,26,16,19,27.10
2015,06,26,16,20,27.10
2015,06,26,16,21,27.10
2015,06,26,16,22,27.00
2015,06,26,16,23,27.00
2015,06,26,16,24,26.90
2015,06,26,16,25,27.00
2015,06,26,16,26,27.00
2015,06,26,16,27,27.10
2015,06,26,16,28,27.10
2015,06,26,16,29,27.20
2015,06,26,16,30,27.30
2015,06,26,16,31,27.40
2015,06,26,16,32,27.40
2015,06,26,16,33,27.40
2015,06,26,16,34,27.40
2015,06,26,16,35,27.40
2015,06,26,16,36,27.40
2015,06,26,16,37,27.40
2015,06,26,16,38,27.50
2015,06,26,16,39,27.50
2015,06,26,16,40,27.60
2015,06,26,16,41,27.70
2015,06,26,16,42,27.70
2015,06,26,16,43,27.70
2015,06,26,16,44,27.70
2015,06,26,16,45,27.70
2015,06,26,16,46,27.70
2015,06,26,16,47,27.80
2015,06,26,16,48,27.80
2015,06,26,16,49,27.70
2015,06,26,16,50,27.70
2015,06,26,16,51,27.60
2015,06,26,16,52,27.70
2015,06,26,16,53,27.70
2015,06,26,16,54,27.70
2015,06,26,16,55,27.80
2015,06,26,16,56,27.70
2015,06,26,16,57,27.70
2015,06,26,16,58,27.60
2015,06,26,16,59,27.50
2015,06,26,17,00,27.60
2015,06,26,17,01,27.60
2015,06,26,17,02,27.60
2015,06,26,17,03,27.60
2015,06,26,17,04,27.70
2015,06,26,17,05,27.70
2015,06,26,17,06,27.70
2015,06,26,17,07,27.80
2015,06,26,17,08,27.90
2015,06,26,17,09,27.90
2015,06,26,17,10,28.00
2015,06,26,17,11,28.00
2015,06,26,17,12,28.00
2015,06,26,17,13,28.00
2015,06,26,17,14,27.90
2015,06,26,17,15,27.80
2015,06,26,17,16,27.80
2015,06,26,17,17,27.80
2015,06,26,17,18,27.80
2015,06,26,17,19,27.90